Regional Weather Roundup
Issued by NWS Goodland, KS

Home | Current Version | Previous Version | Text Only | Print | Product List | Glossary Off
Versions: 1 2 3 4 5 6 7 8 9 10 11 12 13 14 15 16 17 18 19 20 21 22 23 24 25 26 27 28 29 30 31 32 33 34 35 36 37 38 39 40 41 42 43 44 45 46 47 48 49 50

000
ASUS43 KGLD 110808
RWRGLD

GOODLAND FORECAST AREA HOURLY WEATHER ROUNDUP
NATIONAL WEATHER SERVICE GOODLAND KS
200 AM MDT FRI JUL 11 2014

...OFFICIAL OBSERVATIONS...

CITY           SKY/WX    TMP DP  RH WIND       PRES   REMARKS
GOODLAND KS    PTCLDY    70  57  63 S13       29.96S
HILL CITY KS   CLEAR     72  69  90 S7        29.93S
IMPERIAL NEB   MOCLDY    72  67  84 NE10      29.97F
MCCOOK NEB     PTCLDY    71  68  90 E6        29.93S
AKRON CO       CLOUDY    68  62  81 NE12G20   30.01S
BURLINGTON CO  PTCLDY    75  50  41 S17       29.98R
LIMON CO       PTCLDY    71  49  45 CALM      30.08R
$$

...UNOFFICIAL OBSERVATIONS...

CITY           SKY/WX    TMP DP  RH WIND       PRES   REMARKS
COLBY KS       CLEAR     72  70  94 S9        29.95S
GOVE KS          N/A     72  32  23 CALM        N/A
LENORA KS        N/A     70  32  24 MISG        N/A
NORTON KS      CLEAR     70  64  83 SE7       29.92S
OBERLIN KS     FAIR      70  68  94 S9        29.92F
SHARON SPRINGS   N/A     71  54  55 S10         N/A
ST FRANCIS KS  PTCLDY    73  54  49 S17G23    29.92S
WAKEENEY KS      N/A     71  69  94 MISG        N/A
WRAY CO        FAIR      79  59  50 S9G16     29.94R
YUMA CO          N/A     73  63  71 NE13        N/A
$$



USA.gov is the U.S. government's official web portal to all federal, state and local government web resources and services.